Location: Carri�res
(48.9069°N, 2.1792°E)
Time: 20:45:10
(UTC+00:00)

NOSS 3-4 (A) - Pass Details

Date: 17 January 2021
Orbit: 877 x 1335 km, 63.4° (Epoch: 16 February)

Event Time Altitude Azimuth Distance (km) Brightness Sun altitude
Rises 18:16:24 0° 252° (WSW) 3,494 8.1 -17.7°
Reaches altitude 10° 18:19:00 10° 261° (W) 2,585 7.0 -18.2°
Maximum altitude 18:24:34 38° 329° (NNW) 1,407 4.5 -19.1°
Enters shadow 18:29:06 17° 30° (NNE) 2,318 5.1 -19.8°
